Flag for Germany Weather past 2 weeks in Solingen, North Rhine-Westphalia, Germany

Now
34 °F

Scattered clouds.


Feels Like: 27 °F
Forecast: 28 / 37 °F
Wind: 8 mph from Northwest

Location: Duesseldorf

Current Time: Dec 29, 2014 at 9:58:07 AM

Latest Report: Dec 29, 2014 at 9:20 AM


Visibility: 4 mi

Pressure: 30.42 "Hg

Humidity: 100%

Dew point: 34 °F

Location of SolingenLocation

Historic Weather in Solingen — Graph

°F

Solingen temperature yesterday

Maximum temperature yesterday: 32 °F (at 2:50 PM)
Minimum temperature yesterday: 25 °F (at 6:50 AM)
Average temperature yesterday: 28 °F

Past Weeks' High & Low Weather Summary

 TemperatureHumidityPressure
High55 °F (Dec 18, 4:50 PM)100% (Dec 14, 8:20 AM)30.54 "Hg (Dec 14, 8:20 AM)
Low25 °F (Dec 28, 6:50 AM)55% (Dec 28, 1:20 PM)29.42 "Hg (Dec 27, 12:50 PM)
Average42 °F86%30.04 "Hg
* Reported Dec 14 8:20 AM — Dec 29 8:50 AM, Solingen, Weather by CustomWeather, © 2014

Note: Actual official high and low records may vary slightly from our data, if they occured in-between our weather recording intervals... More about our weather records

Advertising

Solingen weather history for previous 24 hours

 ConditionsComfort  
Time TempWeatherWind HumidityBarometerVisibility
8:50 AM
Dec 29
34 °FPartly sunny.8 mph100%30.42 "Hg4 mi
8:20 AM34 °FPassing clouds.10 mph93%30.42 "Hg4 mi
7:50 AM34 °FPassing clouds.8 mph93%30.42 "Hg4 mi
7:20 AM34 °FPassing clouds.9 mph93%30.42 "Hg3 mi
6:50 AM34 °FLight snow. Fog.12 mph93%30.39 "Hg3 mi
6:20 AM32 °FLight snow. Ice fog.9 mph100%30.39 "Hg3 mi
5:50 AM32 °FLight snow. Low clouds.12 mph93%30.42 "Hg2 mi
5:20 AM32 °FLight snow. Low clouds.12 mph93%30.42 "Hg4 mi
4:20 AM30 °FLight snow. Mostly cloudy.10 mph93%30.45 "Hg2 mi
3:50 AM28 °FSnow. Mostly cloudy.8 mph100%30.45 "Hg1 mi
3:20 AM28 °FLight snow. Passing clouds.9 mph93%30.45 "Hg2 mi
2:50 AM28 °FSnow. Overcast.9 mph93%30.48 "Hg1 mi
2:20 AM28 °FLight snow. Overcast.10 mph86%30.48 "Hg3 mi
1:50 AM28 °FLight snow. Passing clouds.9 mph86%30.48 "HgN/A
1:20 AM28 °FLight snow. Mostly cloudy.8 mph86%30.48 "HgN/A
12:50 AM28 °FPassing clouds.8 mph86%30.51 "HgN/A
12:20 AM28 °FPassing clouds.9 mph86%30.51 "HgN/A
11:50 PM
Dec 28
28 °FPassing clouds.8 mph86%30.51 "HgN/A
11:20 PM27 °FPassing clouds.6 mph93%30.51 "HgN/A
10:20 PM27 °FPassing clouds.7 mph86%30.51 "HgN/A
9:50 PM27 °FPassing clouds.6 mph93%30.54 "HgN/A
9:20 PM27 °FPassing clouds.5 mph86%30.51 "HgN/A
8:50 PM27 °FPassing clouds.5 mph93%30.51 "HgN/A
8:20 PM25 °FPassing clouds.3 mph93%30.51 "HgN/A
7:50 PM25 °FPassing clouds.3 mph86%30.51 "HgN/A
7:20 PM25 °FClear.3 mph86%30.51 "Hg10 mi
6:50 PM27 °FClear.7 mph86%30.51 "Hg10 mi
6:20 PM27 °FClear.5 mph86%30.48 "Hg10 mi
5:50 PM28 °FPassing clouds.3 mph80%30.45 "HgN/A
5:20 PM28 °FPassing clouds.3 mph80%30.45 "HgN/A
4:50 PM30 °FPassing clouds.5 mph75%30.42 "HgN/A
4:20 PM30 °FScattered clouds.8 mph75%30.42 "HgN/A
3:50 PM32 °FScattered clouds.6 mph69%30.42 "HgN/A
3:20 PM32 °FPassing clouds.8 mph64%30.39 "HgN/A
2:50 PM32 °FSunny.8 mph64%30.39 "Hg10 mi
2:20 PM30 °FSunny.9 mph64%30.36 "Hg10 mi
1:50 PM30 °FSunny.8 mph55%30.36 "Hg10 mi
1:20 PM30 °FSunny.10 mph55%30.33 "Hg10 mi
12:50 PM28 °FSunny.13 mph59%30.33 "Hg10 mi
12:20 PM28 °FSunny.12 mph59%30.30 "Hg10 mi
11:50 AM28 °FSunny.12 mph64%30.30 "Hg10 mi
11:20 AM27 °FSunny.12 mph69%30.30 "Hg10 mi
10:50 AM27 °FSunny.14 mph69%30.27 "Hg10 mi
10:20 AM27 °FSunny.15 mph69%30.24 "Hg10 mi
9:50 AM25 °FSunny.14 mph74%30.21 "Hg10 mi
9:20 AM25 °FSunny.14 mph69%30.18 "Hg10 mi
Weather by CustomWeather, © 2014

See weather overviewHow to use our weather pages